Location: Gälforsberget
(66.6500°N, 22.4167°E)
Time: 07:03:01
(UTC+00:00)

Cosmos 1943 Rocket - Pass Details

Date: 11 April 2026
Orbit: 809 x 844 km, 71.0° (Epoch: 12 May)

Event Time Altitude Azimuth Distance (km) Brightness Sun altitude
Rises 19:59:19 0° 316° (NW) 3,414 7.6 -9.9°
Reaches altitude 10° 20:02:08 10° 304° (NW) 2,477 6.0 -10.1°
Maximum altitude 20:06:40 25° 251° (WSW) 1,641 3.9 -10.4°
Drops below altitude 10° 20:11:11 10° 198° (SSW) 2,466 4.3 -10.6°
Enters shadow 20:12:59 - 189° (S) 3,046 4.7 -10.7°
